Weather History for Branson West Muni - Emerson F, MO

Change the Weather History Date:

Tuesday, August 19, 2014

  Actual Average (KHRO) Record (KHRO)
Temperature  
Mean Temperature 82 °F 78 °F  
Max Temperature 95 °F 89 °F 107 °F (1936)
Min Temperature 68 °F 66 °F 52 °F (1953)
Degree Days  
Heating Degree Days 0 0  
Month to date heating degree days 0  
Since 1 June heating degree days 6  
Since 1 July heating degree days 0  
Cooling Degree Days 16 13  
Month to date cooling degree days 259  
Year to date cooling degree days 1077  
Since 1 June cooling degree days 938  
Growing Degree Days 32 (Base 50)    
Moisture  
Dew Point 66 °F    
Average Humidity 62    
Maximum Humidity 94    
Minimum Humidity 30    
Precipitation  
Precipitation 0.00 in 0.11 in 5.70 in (1915)
Month to date precipitation 2.26  
Year to date precipitation 27.64  
Snow  
Snow 0.00 in 0.00 in - ()
Month to date snowfall 0.0  
Since 1 June snowfall 0.0  
Since 1 July snowfall 0.0  
Snow Depth -    
Sea Level Pressure  
Sea Level Pressure 29.90 in    
Wind  
Wind Speed 5 mph (WSW)    
Max Wind Speed 14 mph    
Max Gust Speed 20 mph    
Visibility 10 miles    
Events      
T = Trace of Precipitation, MM = Missing Value Source: NWS Daily Summary

Daily Weather History Graph

Daily Weather History Graph

Search for Another Location

Airport:

Trip Planner

Search our weather history database for the weather conditions in past years. The results will help you decide how hot, cold, wet, or windy it might be!

Date:

Astronomy

Aug. 19, 2014 Rise Set
Actual Time 6:34 AM CDT 7:59 PM CDT
Civil Twilight 6:06 AM CDT 8:26 PM CDT
Nautical Twilight 5:34 AM CDT 8:59 PM CDT
Astronomical Twilight 5:00 AM CDT 9:33 PM CDT
Moon 1:29 AM CDT (8/19) 3:53 PM CDT (8/19)
Length of Visible Light 14h 19m
Length of Day
13h 25m
Waning Crescent, 29% of the Moon is Illuminated
Aug 19
Waning Crescent
Aug 25
New
Sep 2
First Quarter
Sep 8
Full
Sep 15
Last Quarter

Hourly Weather History & Observations

Time (CDT) Temp. Heat Index Dew Point Humidity Pressure Visibility Wind Dir Wind Speed Gust Speed Precip Events Conditions
12:15 AM 73.4 °F - 66.2 °F 78% 29.89 in 10.0 mi Calm Calm - N/A   Clear
12:35 AM 73.4 °F - 66.2 °F 78% 29.89 in 10.0 mi Calm Calm - N/A   Clear
12:55 AM 71.6 °F - 66.2 °F 83% 29.88 in 10.0 mi Calm Calm - N/A   Clear
1:15 AM 71.6 °F - 66.2 °F 83% 29.88 in 10.0 mi Calm Calm - N/A   Clear
1:35 AM 71.6 °F - 66.2 °F 83% 29.87 in 10.0 mi Calm Calm - N/A   Clear
1:55 AM 71.6 °F - 66.2 °F 83% 29.87 in 10.0 mi South 3.5 mph - N/A   Clear
2:15 AM 71.6 °F - 66.2 °F 83% 29.88 in 10.0 mi Calm Calm - N/A   Clear
2:35 AM 73.4 °F - 64.4 °F 73% 29.87 in 10.0 mi Calm Calm - N/A   Clear
2:55 AM 73.4 °F - 64.4 °F 73% 29.87 in 10.0 mi Calm Calm - N/A   Clear
3:15 AM 73.4 °F - 64.4 °F 73% 29.86 in 10.0 mi SW 4.6 mph - N/A   Clear
3:35 AM 73.4 °F - 64.4 °F 73% 29.87 in 10.0 mi SW 5.8 mph - N/A   Clear
3:55 AM 73.4 °F - 64.4 °F 73% 29.87 in 10.0 mi SW 5.8 mph - N/A   Clear
4:15 AM 73.4 °F - 64.4 °F 73% 29.87 in 10.0 mi WSW 5.8 mph - N/A   Clear
4:35 AM 71.6 °F - 64.4 °F 78% 29.87 in 10.0 mi WSW 5.8 mph - N/A   Clear
4:55 AM 71.6 °F - 64.4 °F 78% 29.88 in 10.0 mi WSW 3.5 mph - N/A   Clear
5:15 AM 69.8 °F - 64.4 °F 83% 29.88 in 10.0 mi West 4.6 mph - N/A   Clear
5:35 AM 69.8 °F - 66.2 °F 88% 29.89 in 10.0 mi West 4.6 mph - N/A   Clear
5:55 AM 69.8 °F - 66.2 °F 88% 29.90 in 10.0 mi West 3.5 mph - N/A   Clear
6:15 AM 68.0 °F - 66.2 °F 94% 29.91 in 10.0 mi WSW 5.8 mph - N/A   Clear
6:35 AM 68.0 °F - 66.2 °F 94% 29.91 in 10.0 mi WSW 6.9 mph - N/A   Clear
6:55 AM 69.8 °F - 66.2 °F 88% 29.91 in 10.0 mi SW 8.1 mph - N/A   Clear
7:15 AM 71.6 °F - 68.0 °F 88% 29.91 in 10.0 mi WSW 8.1 mph - N/A   Clear
7:35 AM 71.6 °F - 68.0 °F 88% 29.91 in 10.0 mi SW 8.1 mph - N/A   Clear
7:55 AM 73.4 °F - 68.0 °F 83% 29.91 in 10.0 mi SW 6.9 mph - N/A   Clear
8:15 AM 75.2 °F - 69.8 °F 83% 29.91 in 10.0 mi SW 9.2 mph - N/A   Clear
8:35 AM 77.0 °F - 69.8 °F 78% 29.91 in 10.0 mi WSW 11.5 mph 19.6 mph N/A   Clear
8:55 AM 77.0 °F - 69.8 °F 78% 29.91 in 10.0 mi SW 9.2 mph 18.4 mph N/A   Clear
9:15 AM 80.6 °F 83.9 °F 69.8 °F 70% 29.91 in 10.0 mi SW 8.1 mph - N/A   Clear
9:35 AM 80.6 °F 83.9 °F 69.8 °F 70% 29.90 in 10.0 mi SSW 9.2 mph - N/A   Clear
9:55 AM 82.4 °F 85.4 °F 68.0 °F 62% 29.91 in 10.0 mi WSW 11.5 mph - N/A   Clear
10:15 AM 84.2 °F 87.3 °F 68.0 °F 58% 29.93 in 10.0 mi West 6.9 mph - N/A   Clear
10:35 AM 84.2 °F 86.6 °F 66.2 °F 55% 29.93 in 10.0 mi SW 8.1 mph - N/A   Clear
10:55 AM 84.2 °F 87.3 °F 68.0 °F 58% 29.93 in 10.0 mi SW 6.9 mph - N/A   Clear
11:15 AM 86.0 °F 88.2 °F 66.2 °F 51% 29.93 in 10.0 mi WSW 9.2 mph - N/A   Clear
11:35 AM 89.6 °F 92.2 °F 66.2 °F 46% 29.93 in 10.0 mi SW 10.4 mph - N/A   Clear
11:55 AM 87.8 °F 90.4 °F 66.2 °F 49% 29.93 in 10.0 mi SW 4.6 mph - N/A   Clear
12:15 PM 89.6 °F 91.1 °F 64.4 °F 43% 29.92 in 10.0 mi WSW 8.1 mph - N/A   Clear
12:35 PM 91.4 °F 92.1 °F 62.6 °F 38% 29.92 in 10.0 mi WSW 10.4 mph 17.3 mph N/A   Clear
12:55 PM 91.4 °F 93.2 °F 64.4 °F 41% 29.92 in 10.0 mi SW 9.2 mph 16.1 mph N/A   Clear
1:15 PM 91.4 °F 93.2 °F 64.4 °F 41% 29.92 in 10.0 mi West 11.5 mph - N/A   Clear
1:35 PM 91.4 °F 93.2 °F 64.4 °F 41% 29.92 in 10.0 mi SW 6.9 mph - N/A   Clear
1:55 PM 93.2 °F 94.1 °F 62.6 °F 36% 29.91 in 10.0 mi SW 11.5 mph 18.4 mph N/A   Clear
2:15 PM 93.2 °F 94.1 °F 62.6 °F 36% 29.91 in 10.0 mi SW 8.1 mph - N/A   Clear
2:35 PM 95.0 °F 96.0 °F 62.6 °F 34% 29.90 in 10.0 mi SW 11.5 mph 19.6 mph N/A   Clear
3:15 PM 95.0 °F 96.0 °F 62.6 °F 34% 29.89 in 10.0 mi WSW 12.7 mph 17.3 mph N/A   Clear
3:35 PM 95.0 °F 96.0 °F 62.6 °F 34% 29.88 in 10.0 mi WSW 13.8 mph 18.4 mph N/A   Clear
4:15 PM 95.0 °F 95.2 °F 60.8 °F 32% 29.87 in 10.0 mi WSW 9.2 mph - N/A   Clear
4:35 PM 95.0 °F 95.2 °F 60.8 °F 32% 29.87 in 10.0 mi WSW 9.2 mph 16.1 mph N/A   Clear
4:55 PM 95.0 °F 94.4 °F 59.0 °F 30% 29.87 in 10.0 mi WSW 9.2 mph 18.4 mph N/A   Clear
5:15 PM 95.0 °F 94.4 °F 59.0 °F 30% 29.87 in 10.0 mi WSW 9.2 mph - N/A   Clear
5:35 PM 93.2 °F 93.3 °F 60.8 °F 34% 29.87 in 10.0 mi West 10.4 mph - N/A   Clear
5:55 PM 93.2 °F 94.9 °F 64.4 °F 38% 29.87 in 10.0 mi West 11.5 mph 16.1 mph N/A   Clear
6:15 PM 93.2 °F 94.9 °F 64.4 °F 38% 29.87 in 10.0 mi West 10.4 mph 18.4 mph N/A   Clear
6:35 PM 91.4 °F 93.2 °F 64.4 °F 41% 29.87 in 10.0 mi West 11.5 mph - N/A   Clear
6:55 PM 89.6 °F 92.2 °F 66.2 °F 46% 29.86 in 10.0 mi WSW 9.2 mph - N/A   Clear
7:15 PM 89.6 °F 92.2 °F 66.2 °F 46% 29.87 in 10.0 mi West 8.1 mph - N/A   Clear
7:35 PM 87.8 °F 90.4 °F 66.2 °F 49% 29.87 in 10.0 mi West 8.1 mph - N/A   Clear
7:55 PM 86.0 °F 88.2 °F 66.2 °F 51% 29.88 in 10.0 mi WSW 3.5 mph - N/A   Clear
8:15 PM 84.2 °F 86.6 °F 66.2 °F 55% 29.88 in 10.0 mi Calm Calm - N/A   Clear
8:35 PM 84.2 °F 87.3 °F 68.0 °F 58% 29.89 in 10.0 mi Calm Calm - N/A   Clear
8:55 PM 82.4 °F 85.4 °F 68.0 °F 62% 29.89 in 10.0 mi Calm Calm - N/A   Clear
9:15 PM 82.4 °F 85.4 °F 68.0 °F 62% 29.90 in 10.0 mi Calm Calm - N/A   Clear
9:35 PM 80.6 °F 82.7 °F 66.2 °F 61% 29.91 in 10.0 mi Calm Calm - N/A   Clear
9:55 PM 80.6 °F 82.7 °F 66.2 °F 61% 29.91 in 10.0 mi SW 3.5 mph - N/A   Clear
10:15 PM 80.6 °F 82.7 °F 66.2 °F 61% 29.92 in 10.0 mi Calm Calm - N/A   Clear
10:35 PM 78.8 °F - 66.2 °F 65% 29.92 in 10.0 mi SW 3.5 mph - N/A   Clear
10:55 PM 78.8 °F - 66.2 °F 65% 29.92 in 10.0 mi SW 4.6 mph - N/A   Clear
11:15 PM 78.8 °F - 68.0 °F 69% 29.92 in 10.0 mi SW 6.9 mph - N/A   Clear
11:35 PM 78.8 °F - 68.0 °F 69% 29.93 in 10.0 mi SW 5.8 mph - N/A   Clear
11:55 PM 78.8 °F - 69.8 °F 74% 29.93 in 10.0 mi SW 5.8 mph - N/A   Clear